EW1600 Weather Reports


Display with metric or nautical units.
time (UTC)temp
F
wind
direction
speed
MPH
gust
MPH
rain 1hr
in
rain 24hr
in
rain mn
in
humidity
%
barometer
mb
20260506034504 34 186 2.0 7.0 0.01 0.50 0.01 91 1013.1
20260506034004 34 176 2.0 7.0 0.00 0.49 0.00 91 1013.0
20260506033503 33 255 1.0 3.0 0.00 0.49 0.00 91 1013.0
20260506033005 33 281 1.0 5.0 0.00 0.49 0.00 91 1012.9
20260506032503 33 104 0.0 1.0 0.00 0.49 0.00 91 1012.9
20260506032003 33 94 0.0 2.0 0.00 0.49 0.00 90 1012.9
20260506031503 33 320 1.0 2.0 0.00 0.49 0.00 90 1012.9
20260506031003 33 19 1.0 3.0 0.00 0.49 0.00 90 1012.9
20260506030504 33 327 1.0 3.0 0.00 0.49 0.00 89 1013.0
20260506030003 33 201 1.0 2.0 0.00 0.49 0.00 89 1013.0
20260506025503 33 327 1.0 3.0 0.00 0.49 0.00 89 1013.0
20260506024004 34 222 2.0 6.0 0.00 0.49 0.00 89 1013.1
20260506023504 34 280 1.0 5.0 0.00 0.49 0.00 89 1013.0
20260506023004 34 294 0.0 3.0 0.00 0.49 0.00 89 1013.0
20260506022504 34 297 2.0 3.0 0.00 0.49 0.00 89 1013.0
20260506022003 34 307 1.0 3.0 0.00 0.49 0.00 89 1012.9
20260506021503 34 291 1.0 3.0 0.00 0.49 0.00 89 1012.9
20260506015504 34 252 2.0 10.0 0.00 0.49 0.00 89 1013.0
20260506015004 34 260 5.0 10.0 0.00 0.49 0.00 89 1013.1
20260506014503 34 275 5.0 10.0 0.00 0.49 0.00 89 1013.0
20260506013503 34 210 2.0 8.0 0.00 0.49 0.00 89 1012.9
20260506013003 34 152 3.0 9.0 0.00 0.49 0.00 90 1013.0
20260506012503 34 143 2.0 9.0 0.00 0.49 0.00 90 1012.9
20260506012004 34 258 1.0 3.0 0.00 0.49 0.00 90 1012.9
20260506011504 34 262 1.0 6.0 0.00 0.49 0.00 90 1012.9
20260506011004 34 298 1.0 5.0 0.00 0.49 0.00 90 1012.9
20260506005504 33 133 3.0 7.0 0.00 0.49 0.00 90 1012.9
20260506005003 33 153 1.0 5.0 0.00 0.49 0.00 90 1013.0
20260506004003 33 286 1.0 2.0 0.00 0.49 0.00 90 1013.0
20260506003503 33 50 1.0 2.0 0.00 0.49 0.00 89 1012.8
20260506003004 33 280 1.0 2.0 0.00 0.49 0.00 89 1012.8
20260506002503 33 121 1.0 2.0 0.00 0.49 0.00 89 1012.8
20260506002003 33 292 1.0 3.0 0.00 0.49 0.00 89 1012.8
20260506001503 33 318 0.0 3.0 0.00 0.49 0.00 89 1013.0
20260506001004 33 343 1.0 3.0 0.00 0.49 0.00 89 1013.1
20260506000504 33 330 0.0 2.0 0.00 0.49 0.00 89 1012.9
20260506000004 33 320 1.0 2.0 0.00 0.49 0.00 88 1013.0
20260505235504 33 291 0.0 1.0 0.00 0.49 0.00 88 1012.9
20260505235004 33 303 1.0 3.0 0.00 0.49 0.00 88 1013.2
20260505234504 34 356 0.0 0.0 0.00 0.49 0.00 88 1013.1
20260505234004 34 356 0.0 1.0 0.00 0.49 0.00 88 1013.1
20260505233504 33 73 0.0 1.0 0.00 0.49 0.00 87 1013.1
20260505233004 33 70 0.0 2.0 0.00 0.49 0.00 87 1013.1
20260505232503 33 54 1.0 3.0 0.00 0.49 0.00 87 1013.1
20260505232003 34 305 0.0 0.0 0.00 0.49 0.00 86 1013.2
20260505231504 34 299 1.0 3.0 0.00 0.49 0.00 84 1013.3
20260505231004 34 295 1.0 3.0 0.00 0.49 0.00 82 1013.3
20260505230004 36 271 5.0 12.0 0.00 0.49 0.00 80 1013.4
20260505225504 36 272 5.0 12.0 0.00 0.49 0.00 78 1013.3
20260505225004 36 246 3.0 7.0 0.00 0.49 0.00 77 1013.2
20260505224503 36 193 1.0 3.0 0.00 0.49 0.00 77 1013.0
20260505224003 36 294 0.0 3.0 0.00 0.49 0.00 78 1012.9
20260505223503 35 247 2.0 3.0 0.00 0.49 0.00 79 1012.8
20260505223003 35 296 3.0 7.0 0.00 0.49 0.00 80 1012.8
20260505222504 35 293 2.0 3.0 0.00 0.49 0.00 80 1012.8
20260505222004 35 224 1.0 2.0 0.00 0.49 0.00 80 1012.9
20260505221503 35 202 3.0 9.0 0.00 0.50 0.00 81 1012.8
20260505221003 35 136 1.0 3.0 0.00 0.50 0.00 81 1012.9
20260505220504 35 141 1.0 3.0 0.00 0.50 0.00 82 1012.9
20260505220003 35 150 0.0 1.0 0.00 0.50 0.00 81 1013.0
20260505215503 35 165 0.0 5.0 0.00 0.50 0.50 81 1013.0
20260505215003 35 261 2.0 7.0 0.00 0.50 0.50 81 1013.0
20260505214504 35 221 1.0 7.0 0.00 0.50 0.50 81 1013.1
20260505214004 35 270 2.0 9.0 0.00 0.50 0.50 81 1013.1
20260505213503 35 242 2.0 9.0 0.00 0.50 0.50 82 1013.1
20260505213004 35 233 1.0 6.0 0.00 0.50 0.50 81 1013.1
20260505212003 35 203 2.0 5.0 0.00 0.50 0.50 80 1013.1
20260505211503 35 143 3.0 8.0 0.00 0.50 0.50 80 1013.1
20260505211004 35 202 2.0 8.0 0.00 0.50 0.50 80 1013.1
20260505210003 36 152 2.0 7.0 0.00 0.50 0.50 81 1013.1
20260505205503 36 163 1.0 3.0 0.00 0.50 0.50 81 1013.1
20260505205004 36 159 1.0 7.0 0.00 0.50 0.50 81 1013.2
20260505204504 35 209 1.0 8.0 0.00 0.50 0.50 81 1013.1
20260505203503 35 159 0.0 2.0 0.00 0.50 0.50 82 1013.0
20260505203004 35 212 0.0 2.0 0.00 0.50 0.50 81 1013.0
20260505202504 36 128 0.0 3.0 0.00 0.50 0.50 81 1013.0
20260505201503 36 159 1.0 3.0 0.00 0.50 0.50 82 1013.0
20260505201004 36 156 1.0 6.0 0.00 0.50 0.50 83 1013.0
20260505200503 36 147 1.0 5.0 0.00 0.50 0.50 83 1012.9
20260505195504 36 170 0.0 1.0 0.00 0.50 0.50 85 1012.8
20260505195004 35 191 0.0 1.0 0.00 0.50 0.50 85 1012.9
20260505194504 35 176 1.0 3.0 0.00 0.50 0.50 86 1012.9
20260505194004 35 91 0.0 1.0 0.00 0.50 0.50 86 1012.8
20260505193504 35 95 0.0 1.0 0.00 0.50 0.50 86 1012.7
20260505193004 35 100 0.0 1.0 0.00 0.50 0.50 86 1012.7
20260505192004 34 114 0.0 1.0 0.00 0.50 0.50 85 1012.8
20260505191503 35 114 0.0 1.0 0.00 0.50 0.50 85 1012.8
20260505190504 35 135 1.0 2.0 0.00 0.50 0.50 83 1012.8
20260505190004 35 328 0.0 1.0 0.00 0.50 0.50 82 1012.8
20260505185503 35 324 0.0 3.0 0.00 0.50 0.50 81 1012.7
20260505185004 36 342 2.0 6.0 0.00 0.50 0.50 79 1012.7
20260505184004 37 292 7.0 12.0 0.00 0.50 0.50 76 1012.8
20260505183504 38 277 5.0 12.0 0.00 0.50 0.50 76 1012.7
20260505182003 38 207 2.0 8.0 0.00 0.50 0.50 75 1012.5
20260505181504 38 263 2.0 7.0 0.00 0.51 0.50 74 1012.5
20260505181003 39 274 2.0 7.0 0.00 0.51 0.50 75 1012.6
20260505180503 39 209 2.0 7.0 0.00 0.51 0.50 74 1012.6
20260505180004 39 262 2.0 6.0 0.00 0.51 0.50 74 1012.6
20260505175504 39 260 2.0 7.0 0.00 0.51 0.50 73 1012.7
20260505174504 40 216 2.0 5.0 0.00 0.51 0.50 71 1012.6
20260505174004 40 225 3.0 10.0 0.00 0.51 0.50 71 1012.6
20260505173503 41 257 3.0 8.0 0.00 0.51 0.50 71 1012.6
20260505173004 40 245 3.0 9.0 0.00 0.51 0.50 70 1012.5
20260505172504 41 249 4.0 9.0 0.00 0.51 0.50 71 1012.4
20260505172004 40 255 2.0 8.0 0.00 0.51 0.50 73 1012.5
20260505171504 39 266 4.0 8.0 0.00 0.51 0.50 74 1012.5
20260505171004 39 267 4.0 10.0 0.00 0.51 0.50 74 1012.5
20260505170503 39 268 3.0 9.0 0.00 0.51 0.50 74 1012.5
20260505170004 40 285 3.0 8.0 0.00 0.51 0.50 75 1012.5
20260505165504 40 260 4.0 9.0 0.00 0.51 0.50 74 1012.4
20260505165004 40 261 3.0 9.0 0.00 0.51 0.50 74 1012.4
20260505164504 39 220 4.0 8.0 0.00 0.51 0.50 73 1012.4
20260505164004 39 270 3.0 7.0 0.00 0.51 0.50 74 1012.4
20260505163504 39 271 4.0 8.0 0.00 0.51 0.50 74 1012.4
20260505162504 40 255 3.0 7.0 0.00 0.51 0.50 75 1012.5
20260505162004 39 250 4.0 9.0 0.00 0.51 0.50 77 1012.4
20260505161504 39 257 5.0 10.0 0.00 0.52 0.50 78 1012.4
20260505161004 39 230 2.0 6.0 0.00 0.52 0.50 80 1012.4
20260505152004 37 277 3.0 7.0 0.02 0.54 0.50 86 1012.4
20260505151004 37 279 3.0 10.0 0.02 0.54 0.50 87 1012.5
20260505150504 37 274 4.0 9.0 0.02 0.54 0.50 87 1012.5
20260505140504 40 201 3.0 9.0 0.10 0.51 0.47 73 1011.9
20260505125004 40 182 3.0 12.0 0.14 0.39 0.35 74 1011.7
20260505124504 40 293 5.0 9.0 0.14 0.37 0.33 76 1011.7
20260505123504 38 267 3.0 10.0 0.15 0.35 0.31 76 1011.7
20260505123004 38 254 5.0 12.0 0.16 0.35 0.31 75 1011.8
20260505122504 39 286 2.0 9.0 0.17 0.34 0.30 76 1011.7
20260505120005 40 251 3.0 10.0 0.16 0.27 0.23 75 1011.5
20260505115004 39 270 2.0 8.0 0.17 0.24 0.20 79 1011.5
20260505114503 38 228 3.0 8.0 0.16 0.23 0.19 79 1011.5
20260505114004 38 284 3.0 9.0 0.15 0.21 0.17 79 1011.6
20260505113503 38 167 5.0 12.0 0.14 0.20 0.17 80 1011.6
20260505113003 38 265 1.0 5.0 0.13 0.19 0.15 83 1011.7
20260505112504 37 255 2.0 8.0 0.11 0.17 0.13 81 1011.7
20260505112004 39 256 1.0 3.0 0.09 0.16 0.12 81 1011.7
20260505111504 39 284 3.0 7.0 0.09 0.15 0.11 84 1011.6
20260505111004 38 325 3.0 6.0 0.08 0.13 0.09 85 1011.5
20260505110503 37 327 2.0 3.0 0.06 0.12 0.08 85 1011.6
20260505102004 33 270 0.0 0.0 0.01 0.06 0.02 90 1011.6
20260505100503 33 23 0.0 1.0 0.01 0.06 0.02 90 1011.5
20260505100004 32 23 0.0 0.0 0.01 0.06 0.02 90 1011.5
20260505095504 32 11 0.0 0.0 0.01 0.06 0.02 90 1011.5
20260505095004 32 84 0.0 0.0 0.01 0.06 0.02 90 1011.5
20260505094503 32 331 0.0 0.0 0.01 0.06 0.02 90 1011.5
20260505094003 32 294 0.0 1.0 0.01 0.06 0.02 89 1011.6
20260505093503 32 284 0.0 1.0 0.01 0.06 0.02 89 1011.6
20260505093004 32 200 0.0 1.0 0.01 0.06 0.02 89 1011.7
20260505092503 32 257 1.0 3.0 0.01 0.06 0.02 88 1011.8
20260505092004 32 220 1.0 3.0 0.01 0.06 0.02 88 1011.8
20260505091504 32 226 1.0 3.0 0.00 0.06 0.01 87 1011.7
20260505091004 32 235 1.0 5.0 0.00 0.06 0.01 87 1011.8
20260505090504 33 235 3.0 9.0 0.00 0.06 0.01 86 1011.7
20260505085503 33 142 5.0 12.0 0.00 0.06 0.01 86 1011.2
20260505085003 33 133 2.0 8.0 0.00 0.06 0.01 87 1011.1
20260505084503 33 80 1.0 3.0 0.00 0.06 0.01 87 1011.0
20260505084003 33 125 0.0 3.0 0.00 0.06 0.01 87 1011.1
20260505083503 33 88 0.0 2.0 0.00 0.06 0.01 87 1011.0
20260505083004 33 44 1.0 3.0 0.00 0.06 0.01 87 1011.1
20260505082004 32 352 0.0 1.0 0.00 0.06 0.01 86 1011.1
20260505081504 33 352 1.0 3.0 0.00 0.06 0.01 86 1011.1
20260505081004 33 319 1.0 3.0 0.00 0.06 0.01 85 1011.2
20260505080504 33 312 2.0 6.0 0.00 0.06 0.01 83 1011.1
20260505080004 33 339 2.0 8.0 0.00 0.06 0.01 81 1011.1
20260505075504 33 302 2.0 7.0 0.00 0.06 0.01 80 1011.1
20260505074504 35 275 5.0 12.0 0.00 0.06 0.01 73 1011.0
20260505074004 36 209 2.0 8.0 0.00 0.06 0.01 72 1010.8
20260505073504 36 168 3.0 9.0 0.00 0.06 0.01 71 1010.7
20260505073004 36 204 2.0 8.0 0.00 0.06 0.01 71 1010.5
20260505072504 35 171 3.0 8.0 0.00 0.06 0.01 73 1010.6
20260505072004 35 279 3.0 8.0 0.00 0.06 0.01 74 1010.6
20260505071004 35 295 1.0 7.0 0.00 0.06 0.01 75 1010.6
20260505070504 35 285 1.0 10.0 0.00 0.06 0.01 75 1010.5
20260505065504 35 251 5.0 9.0 0.00 0.06 0.01 77 1010.5
20260505065004 34 195 2.0 7.0 0.00 0.06 0.01 79 1010.6
20260505064504 34 233 3.0 8.0 0.00 0.06 0.01 80 1010.7
20260505064004 34 257 3.0 12.0 0.00 0.06 0.01 80 1010.6
20260505063504 34 242 3.0 7.0 0.00 0.06 0.01 81 1010.6
20260505063004 34 227 3.0 7.0 0.00 0.06 0.01 80 1010.7
20260505062004 34 154 3.0 8.0 0.00 0.06 0.01 80 1010.6
20260505061503 34 154 1.0 6.0 0.00 0.07 0.01 80 1010.7
20260505060503 33 204 1.0 5.0 0.00 0.07 0.01 81 1010.8
20260505055503 33 237 1.0 7.0 0.00 0.07 0.01 82 1010.7
20260505055003 33 241 0.0 3.0 0.00 0.07 0.01 82 1010.7
20260505054003 33 233 3.0 8.0 0.00 0.07 0.01 83 1010.7
20260505053504 33 166 2.0 8.0 0.00 0.07 0.01 83 1010.7
20260505052504 32 139 3.0 10.0 0.00 0.07 0.01 85 1010.7
20260505052004 32 195 3.0 8.0 0.00 0.07 0.01 85 1010.7
20260505051503 32 205 3.0 10.0 0.00 0.08 0.01 86 1010.8
20260505051004 32 195 3.0 8.0 0.00 0.08 0.01 87 1010.7
20260505050504 31 267 2.0 8.0 0.00 0.08 0.01 88 1010.7
20260505041504 31 167 3.0 7.0 0.00 0.08 0.01 88 1010.8
20260505041004 32 231 3.0 12.0 0.00 0.08 0.01 88 1010.7
20260505040005 33 271 4.0 12.0 0.00 0.08 0.01 88 1010.5
20260505035503 33 178 3.0 10.0 0.00 0.08 0.01 89 1010.4
20260505035003 33 181 2.0 5.0 0.00 0.08 0.01 89 1010.3